CZ-2D DEB, 44609

Orbit data source: Space-Track

CZ-2D DEB, 44609 is space debris in SSO originally from a launch on Mon, 09 Oct 2017 UTC launched from the Jiuquan Satellite Launch Center, China (JSC). Debris objects in space refer to the collection of defunct objects orbiting the Earth. Examples of debris include non-operational satellites, rocket bodies, and fragments generated from explosions, collisions, or faulty payload assembly.

Loading next visibility...
Identifier
44609, 2017-060B
Orbit
SSO
Country
Flag of CNCN / PRC
Related business
Manufacturer
Unknown
Mission
Spacecraft
Bus & Motor
Unknown
Mass
Unknown
Launch date (UTC)
2017-10-09 (8 years ago)
Launch vehicle
Unknown
Launch site
Jiuquan Satellite Launch Center, China (JSC)
Object type
Payload
Rocket body
Debris
Shape & HBR
Unknown shape, 0.1 m
Radar Cross Section
Small (<0.1 m²)

Expand to show TLE details & history
Last TLE update: 6 hours ago

TLE from 6 hours ago
0 CZ-2D DEB
1 44609U 17060B   26095.54931787  .00006840  00000-0  55064-3 0  9994
2 44609  97.5438 116.2154 0029233 189.7414 170.3247 14.99930694454296
Epoch: 2026-04-05T13:11Z
TLE epoch observation values (Epoch: 2026-04-05T13:11:01.063Z)
Latitude
-0.00004°
Longitude
84.60783°
Altitude
590.19 km
Speed
7.554 km/s
True Right ascension
07h 44m 51s
True Declination
0° 00' 00"
Sunlit
Object was in daylight at epoch
Visualization orbit readout
Latitude
Unknown
Longitude
Unknown
Altitude
Unknown
Speed
Unknown
Apparent Right ascension
Unknown
Apparent Declination
Unknown
Sunlit
N/A
Visualization observer readout
Local Sidereal Time
01:20:03
Azimuth
Unknown
Elevation
Unknown
Doppler factor
Unknown
Orbital elements
Apogee altitude
584.403 km
Perigee altitude
543.815 km
Semi-major axis
6,942.246 km
Eccentricity
0.00292
Inclination
97.5438°
RAAN
116.2154°
Arg. of periapsis
189.7414°
True anomaly
170.3808°
Mean anomaly
170.3247°
Eccentric anomaly
170.35277°
Mean motion
3.75226 °/min
Orbital period
95.94 mins
BSTAR
0.00055064
Loading maneuver chart data...
Computing Atmospheric mass density...
Loading historical data...
Loading historical data...
Loading historical data...
Loading historical data...
Loading historical data...
Loading historical data...
Loading historical data...
Other satellites on launch #60 in the year 2017 (2017-10-09 UTC)

Documentation

Showing up to 5 results
|